Dewpoint
29 28 28 26 23 22 22 24 22 23 23 24 27 28 29 31 34 34 34 36 36 38 41 42 44 47 51 54 55 58 59 59 59 60 60 60 59 58 56 55 55 54 54 52
31 30 29 28 29 27 26 26 25 26 25 28 28 28 29 32 37 38 38 39 40 39 39 40 42 43 45 49 52 56 59 59 60 60 60 60 58 55 53 53 52 52 49 47
28 31 29 27 30 29 29 29 27 25 26 28 32 34 36 40 41 42 41 42 43 44 44 43 43 43 44 45 49 56 59 59 59 60 59 58 54 52 52 51 49 48 46 44
30 29 24 29 31 29 28 28 30 29 35 35 34 36 40 41 41 41 37 37 38 41 43 45 45 45 46 48 49 51 53 55 55 55 55 52 52 52 51 49 47 45 44 43
29 27 29 29 30 32 30 29 37 34 38 40 41 40 40 41 42 40 39 39 38 39 42 43 44 44 45 45 47 47 48 49 51 52 51 49 50 50 48 47 46 44 44 44
33 26 23 27 31 33 33 28 40 41 40 40 40 36 39 42 43 42 41 42 40 40 41 42 44 44 43 44 44 44 46 47 48 49 50 48 47 45 45 45 44 44 45 44
29 26 28 33 36 36 28 27 43 42 41 41 39 40 40 43 43 43 43 44 44 40 40 41 43 44 43 42 42 43 45 45 44 45 46 45 44 43 44 45 45 44 42 42
31 27 25 35 34 29 34 43 42 42 41 40 41 42 43 43 43 44 44 45 46 44 40 40 42 42 41 40 42 42 42 42 42 43 42 42 42 43 44 44 42 41 39 37
33 33 38 44 42 42 42 42 42 41 41 42 43 43 43 44 44 44 45 45 46 46 45 41 42 41 40 40 41 40 40 39 40 40 40 41 42 42 41 41 40 37 37 36
33 38 43 40 41 41 42 41 42 43 43 43 43 44 44 44 44 44 44 44 45 45 43 43 42 41 41 42 42 41 40 38 38 38 39 38 39 40 39 38 37 35 35 35
37 42 41 41 41 42 43 44 43 43 43 44 44 44 45 43 43 43 42 42 43 42 41 41 39 38 38 38 41 41 40 40 40 39 38 38 37 36 36 34 36 35 34 34
36 40 40 41 42 40 38 38 41 43 43 45 45 44 43 42 41 37 37 38 38 37 37 36 36 36 37 37 38 40 40 40 39 39 39 38 37 37 35 34 35 36 36 34
39 42 40 42 42 41 40 39 40 42 43 42 39 41 41 37 35 36 37 37 36 36 36 35 35 35 36 36 36 36 34 34 34 34 33 33 33 32 32 34 36 36 36 36
40 40 40 40 37 37 38 37 38 36 36 36 35 35 35 35 35 34 34 35 36 36 36 35 34 33 35 36 35 33 34 32 32 32 32 32 32 32 32 32 32 33 34 35
36 32 28 30 33 34 35 35 35 34 34 35 35 34 34 33 32 34 35 35 35 34 33 32 31 32 34 34 34 35 35 33 33 32 32 32 32 32 32 32 32 33 33 33
32 35 36 36 36 36 36 35 34 33 33 33 33 33 33 33 34 33 33 32 30 28 29 28 28 30 31 31 31 32 33 32 32 32 32 31 32 32 32 32 32 32 32 33
31 33 34 34 34 34 35 35 35 34 33 33 33 33 33 32 31 30 29 30 29 28 28 28 28 29 30 30 30 30 31 31 30 31 29 30 30 32 32 32 32 32 32 32
35 35 35 34 33 34 33 34 33 32 31 31 31 30 29 29 28 27 27 29 25 24 28 28 28 28 26 27 29 28 26 27 29 30 30 30 28 30 31 31 31 31 32 33
34 33 33 34 34 33 32 31 30 30 30 29 27 26 25 25 26 26 26 24 22 25 27 28 27 26 25 24 26 31 30 31 31 30 29 24 25 27 25 25 27 28 31 32
32 33 33 32 32 31 30 31 30 29 28 21 17 17 20 22 21 25 24 23 23 25 28 25 24 23 23 21 21 23 26 27 28 29 29 25 22 22 20 21 23 24 29 32
31 31 30 30 29 29 29 28 28 27 24 19 18 21 22 20 18 25 26 21 22 22 24 22 22 20 19 18 18 21 21 21 23 25 24 23 20 25 25 16 18 21 27 30
31 29 29 29 28 27 27 27 24 15 15 16 12 10 13 22 16 17 14 19 21 17 20 20 19 16 16 13 20 18 20 21 22 22 22 22 26 24 18 16 24 26 28 28
30 29 29 28 27 26 24 19 13 14 12 9 11 15 19 20 20 17 15 20 19 15 18 18 13 14 14 16 18 18 17 21 21 22 22 19 21 21 21 22 21 21 23 23
30 28 27 27 25 21 18 17 19 17 13 15 9 6 17 12 13 19 19 14 8 8 9 13 13 12 9 11 11 12 14 14 15 16 15 15 12 13 15 16 17 17 17 17
28 26 25 23 22 22 22 21 21 22 20 20 19 19 19 18 13 14 12 12 11 10 9 6 8 8 9 8 9 10 11 11 11 11 10 10 11 11 12 12 12 12 13 13
27 25 24 25 23 23 22 22 20 19 18 14 13 4 7 10 11 11 8 5 8 5 5 4 5 6 7 8 9 11 11 11 10 10 9 10 10 9 10 10 9 10 9 10
26 24 22 22 22 21 21 20 19 17 15 10 8 3 4 1 2 5 -2 -2 -3 -2 -1 0 2 3 4 5 7 8 9 10 9 8 8 7 7 7 8 8 8 8 9 9
Lifted_Index
0 1 1 1 2 1 1 1 1 1 2 3 3 3 3 3 3 2 2 2 2 2 2 2 2 2 2 1 0 -1 -1 -2 -2 -2 -2 -3 -3 -3 -3 -3 -3 -2 -2 -1
0 0 0 1 1 1 1 1 1 2 2 3 3 3 3 3 2 2 2 2 2 2 2 2 2 2 1 1 0 -0 -1 -1 -2 -2 -2 -2 -2 -2 -2 -2 -2 -2 -2 -1
-0 -1 -0 0 1 2 2 2 2 2 3 3 3 3 3 2 2 1 2 2 2 1 1 1 1 1 1 1 1 0 -0 -1 -2 -2 -2 -2 -2 -2 -2 -2 -2 -2 -1 -1
-1 -1 -0 1 1 2 2 2 2 3 3 3 3 2 2 2 2 2 2 2 2 1 1 1 0 0 0 0 0 0 0 -0 -1 -1 -1 -1 -1 -1 -1 -1 -2 -2 -2 -1
-2 -1 -0 1 2 2 2 3 3 3 2 2 2 2 1 1 2 2 2 2 2 2 1 1 1 1 1 1 1 1 1 1 1 1 1 0 0 -0 -1 -1 -1 -2 -1 -0
-2 -1 0 1 1 1 2 3 3 2 2 1 1 1 1 1 2 2 3 3 2 2 2 2 2 2 2 2 2 3 3 3 3 3 3 3 2 1 1 -0 -1 -1 0 2
-1 -0 1 2 1 1 2 2 2 1 1 1 1 1 1 2 2 3 3 3 3 3 3 3 3 3 3 4 4 4 5 5 5 5 5 4 3 3 2 1 0 0 2 4
-0 0 1 1 1 1 2 2 2 1 1 1 1 1 1 2 2 3 4 5 5 5 5 5 5 5 5 5 5 6 6 6 6 6 5 5 4 4 3 2 2 2 4 6
0 1 1 1 1 1 1 2 2 2 2 2 1 1 2 2 3 4 5 6 7 7 7 7 7 7 7 6 6 7 7 7 7 7 7 6 6 5 4 4 4 4 6 7
1 1 1 1 1 1 1 1 2 2 2 2 2 2 3 4 5 6 7 8 8 8 8 9 9 9 8 8 8 7 8 8 9 9 8 8 7 6 5 5 6 7 7 8
1 1 1 1 1 2 2 2 3 3 3 4 4 4 5 6 7 7 8 8 8 9 9 10 10 10 9 9 9 9 9 9 9 9 9 8 7 7 6 7 7 7 8 8
1 1 1 1 2 2 2 3 4 5 6 6 7 6 7 7 8 8 8 9 9 10 10 11 11 11 11 11 11 11 11 10 10 9 8 8 7 6 6 7 7 7 8 8
2 2 2 2 3 4 4 5 6 7 7 8 8 8 8 8 8 9 9 10 11 11 12 12 12 12 12 13 13 12 12 11 10 8 7 6 5 5 5 6 6 7 7 8
3 3 4 4 5 7 7 8 8 8 8 9 9 9 9 9 9 10 10 11 12 13 13 13 13 13 13 13 13 12 11 9 8 7 6 5 4 4 5 5 6 6 7 8
6 6 7 7 8 8 9 9 9 9 9 9 9 10 10 10 10 11 12 13 13 14 14 14 13 13 13 12 11 10 8 7 7 6 5 5 5 5 5 6 6 7 7 8
8 9 9 9 9 9 9 9 9 9 10 10 10 10 11 11 11 12 13 13 14 13 13 12 12 11 11 10 10 9 8 8 7 7 6 6 6 6 6 6 6 7 7 7
9 9 10 10 10 10 10 10 10 10 10 11 11 11 12 12 12 12 12 12 12 11 11 11 11 11 11 10 10 9 9 9 9 8 8 8 7 7 7 7 7 7 7 7
10 10 10 11 11 11 11 11 11 11 11 11 11 12 12 12 12 11 11 10 10 10 10 11 11 11 11 11 10 10 10 10 9 9 9 9 9 9 9 8 8 8 7 7
10 11 11 11 12 12 12 12 11 11 11 11 11 11 11 11 10 10 10 10 10 10 11 11 11 11 11 11 11 10 10 10 9 9 9 9 9 9 9 9 9 8 8 7
11 11 11 11 11 11 11 11 11 11 11 10 10 10 10 10 10 10 10 10 10 11 11 12 12 12 12 12 12 12 11 11 10 10 9 9 9 9 9 9 9 9 9 8
11 11 11 11 10 10 10 10 10 10 9 9 10 10 10 10 11 11 11 11 12 13 13 13 13 13 13 14 14 13 13 12 12 11 11 10 9 9 9 9 10 10 10 9
10 10 10 10 9 9 9 9 9 9 9 10 10 10 11 11 12 12 13 14 15 15 15 16 16 16 16 15 15 15 14 14 14 13 13 12 11 10 10 10 11 11 10 10
8 8 9 9 9 9 9 9 9 10 10 11 11 12 12 13 14 15 15 16 17 17 17 17 17 17 17 16 16 16 15 15 14 14 14 13 12 12 11 11 11 11 10 9
7 7 8 8 8 8 8 9 10 10 11 12 13 14 15 15 16 17 17 18 18 18 18 18 17 17 17 17 16 16 15 15 14 14 14 13 13 12 12 11 11 11 10 10
6 7 7 7 8 8 9 10 10 11 12 13 14 16 17 17 17 18 18 18 18 18 18 17 17 17 17 17 16 16 16 15 15 14 13 13 13 12 12 12 12 11 11 11
6 7 7 8 8 9 9 10 11 12 13 14 15 17 18 18 18 18 18 18 18 18 17 17 17 17 17 16 16 15 15 15 14 14 13 13 13 12 12 12 12 12 12 12
7 7 7 8 9 9 10 11 11 12 14 15 16 17 18 19 19 18 18 18 18 18 17 17 17 17 17 16 16 15 14 14 13 13 12 12 12 12 12 13 13 13 13 13